Wetterdaten: Donnerstag, 31.05.2012
Datum Zeit Temperatur Luftfeuchte Regen Wind Richtung Richtung Taupunkt Windchill Windben
31.05.2012 00:00 11,4 C 80 % 0,0 l/m 0,2 km/h (0 Bft) NO 45 8,1 C 11,0 C 0,0 km/h (0 Bft)
31.05.2012 00:05 11,2 C 80 % 0,0 l/m 0,0 km/h (0 Bft) NO 45 7,9 C 10,8 C 0,0 km/h (0 Bft)
31.05.2012 00:10 11,0 C 80 % 0,0 l/m 0,0 km/h (0 Bft) N-NW 337 7,7 C 10,6 C 0,0 km/h (0 Bft)
31.05.2012 00:15 11,2 C 80 % 0,0 l/m 0,0 km/h (0 Bft) N-NO 22 7,9 C 10,7 C 0,0 km/h (0 Bft)
31.05.2012 00:20 11,6 C 79 % 0,0 l/m 0,0 km/h (0 Bft) SO 135 8,1 C 11,0 C 0,0 km/h (0 Bft)
31.05.2012 00:25 11,4 C 79 % 0,0 l/m 0,0 km/h (0 Bft) SO 135 7,9 C 11,0 C 0,0 km/h (0 Bft)
31.05.2012 00:30 11,7 C 80 % 0,0 l/m 0,0 km/h (0 Bft) NO 45 8,4 C 11,1 C 0,0 km/h (0 Bft)
31.05.2012 00:35 11,8 C 79 % 0,0 l/m 0,0 km/h (0 Bft) NO 45 8,3 C 11,1 C 0,0 km/h (0 Bft)
31.05.2012 00:40 11,2 C 79 % 0,0 l/m 0,0 km/h (0 Bft) NO 45 7,7 C 11,0 C 0,0 km/h (0 Bft)
31.05.2012 00:45 11,1 C 80 % 0,0 l/m 0,0 km/h (0 Bft) NO 45 7,8 C 10,9 C 0,0 km/h (0 Bft)
31.05.2012 00:50 10,8 C 81 % 0,0 l/m 0,0 km/h (0 Bft) N-NO 22 7,7 C 10,7 C 0,0 km/h (0 Bft)
31.05.2012 00:55 10,7 C 81 % 0,0 l/m 0,0 km/h (0 Bft) NO 45 7,6 C 10,5 C 0,0 km/h (0 Bft)
31.05.2012 01:00 10,7 C 83 % 0,0 l/m 0,0 km/h (0 Bft) N-NW 337 7,9 C 10,4 C 0,0 km/h (0 Bft)
31.05.2012 01:05 10,8 C 83 % 0,0 l/m 0,0 km/h (0 Bft) N-NO 22 8,0 C 10,4 C 0,0 km/h (0 Bft)
31.05.2012 01:10 10,9 C 83 % 0,0 l/m 0,0 km/h (0 Bft) N-NO 22 8,1 C 10,5 C 0,0 km/h (0 Bft)
31.05.2012 01:15 10,9 C 83 % 0,0 l/m 0,0 km/h (0 Bft) N-NO 22 8,1 C 10,6 C 0,0 km/h (0 Bft)
31.05.2012 01:20 11,4 C 85 % 0,0 l/m 0,6 km/h (0 Bft) N 360 9,0 C 10,8 C 2,6 km/h (1 Bft)
31.05.2012 01:25 11,8 C 85 % 0,0 l/m 1,4 km/h (1 Bft) N-NW 337 9,4 C 11,1 C 3,1 km/h (1 Bft)
31.05.2012 01:30 12,0 C 84 % 0,0 l/m 1,4 km/h (1 Bft) N-NO 22 9,4 C 11,6 C 3,9 km/h (1 Bft)
31.05.2012 01:35 12,2 C 83 % 0,0 l/m 0,8 km/h (0 Bft) N 360 9,4 C 11,8 C 2,3 km/h (1 Bft)
31.05.2012 01:40 12,4 C 82 % 0,0 l/m 0,3 km/h (0 Bft) NO 45 9,4 C 12,2 C 0,0 km/h (0 Bft)
31.05.2012 01:45 12,5 C 82 % 0,0 l/m 0,3 km/h (0 Bft) NO 45 9,5 C 12,3 C 0,0 km/h (0 Bft)
31.05.2012 01:50 12,6 C 81 % 0,0 l/m 0,3 km/h (0 Bft) N 360 9,4 C 12,6 C 0,0 km/h (0 Bft)
31.05.2012 01:55 12,5 C 79 % 0,0 l/m 0,3 km/h (0 Bft) O-SO 112 9,0 C 12,6 C 2,1 km/h (1 Bft)
31.05.2012 02:00 12,3 C 79 % 0,0 l/m 0,0 km/h (0 Bft) SO 135 8,8 C 12,5 C 0,0 km/h (0 Bft)
31.05.2012 02:05 12,3 C 79 % 0,0 l/m 0,0 km/h (0 Bft) SO 135 8,8 C 12,5 C 0,0 km/h (0 Bft)
31.05.2012 02:10 12,1 C 79 % 0,0 l/m 0,6 km/h (0 Bft) S 180 8,6 C 12,3 C 2,9 km/h (1 Bft)
31.05.2012 02:15 11,8 C 83 % 0,7 l/m 2,9 km/h (1 Bft) SO 135 9,0 C 11,8 C 7,7 km/h (2 Bft)
31.05.2012 02:20 11,9 C 85 % 0,0 l/m 5,3 km/h (1 Bft) O 90 9,5 C 11,5 C 11,9 km/h (2 Bft)
31.05.2012 02:25 12,1 C 86 % 0,0 l/m 6,0 km/h (2 Bft) S-SO 157 9,8 C 11,5 C 9,2 km/h (2 Bft)
31.05.2012 02:30 11,9 C 86 % 0,7 l/m 6,1 km/h (2 Bft) SO 135 9,6 C 11,7 C 15,0 km/h (3 Bft)
31.05.2012 02:35 11,8 C 86 % 0,0 l/m 5,1 km/h (1 Bft) O 90 9,5 C 11,9 C 3,2 km/h (1 Bft)
31.05.2012 02:40 11,6 C 86 % 0,0 l/m 3,2 km/h (1 Bft) S-SO 157 9,3 C 11,9 C 3,7 km/h (1 Bft)
31.05.2012 02:45 11,6 C 87 % 0,0 l/m 2,3 km/h (1 Bft) N-NO 22 9,5 C 11,8 C 0,0 km/h (0 Bft)
31.05.2012 02:50 11,6 C 88 % 0,0 l/m 1,3 km/h (1 Bft) O 90 9,7 C 11,7 C 3,1 km/h (1 Bft)
31.05.2012 02:55 11,5 C 89 % 0,0 l/m 1,1 km/h (1 Bft) N-NO 22 9,8 C 11,6 C 0,0 km/h (0 Bft)
31.05.2012 03:00 11,5 C 89 % 0,0 l/m 1,0 km/h (0 Bft) N 360 9,8 C 11,4 C 5,8 km/h (2 Bft)
31.05.2012 03:05 11,6 C 89 % 0,0 l/m 2,1 km/h (1 Bft) S-SW 202 9,8 C 11,4 C 4,3 km/h (1 Bft)
31.05.2012 03:10 11,4 C 89 % 0,0 l/m 3,1 km/h (1 Bft) N-NW 337 9,7 C 11,3 C 0,0 km/h (0 Bft)
31.05.2012 03:15 11,3 C 89 % 0,0 l/m 2,4 km/h (1 Bft) N-NO 22 9,6 C 11,2 C 2,7 km/h (1 Bft)
31.05.2012 03:20 11,3 C 90 % 0,0 l/m 1,9 km/h (1 Bft) S-SO 157 9,7 C 11,1 C 0,0 km/h (0 Bft)
31.05.2012 03:25 11,2 C 91 % 0,0 l/m 1,4 km/h (1 Bft) N 360 9,8 C 11,1 C 2,6 km/h (1 Bft)
31.05.2012 03:30 11,1 C 91 % 0,0 l/m 0,5 km/h (0 Bft) NO 45 9,7 C 11,0 C 0,0 km/h (0 Bft)
31.05.2012 03:35 11,1 C 91 % 0,0 l/m 0,5 km/h (0 Bft) N 360 9,7 C 10,9 C 0,0 km/h (0 Bft)
31.05.2012 03:40 11,1 C 91 % 0,0 l/m 0,3 km/h (0 Bft) NO 45 9,7 C 10,9 C 0,0 km/h (0 Bft)
31.05.2012 03:45 11,1 C 92 % 0,0 l/m 0,3 km/h (0 Bft) NO 45 9,8 C 10,9 C 0,0 km/h (0 Bft)
31.05.2012 03:50 11,1 C 92 % 0,0 l/m 0,6 km/h (0 Bft) S 180 9,8 C 11,0 C 0,0 km/h (0 Bft)
31.05.2012 03:55 11,1 C 92 % 0,0 l/m 0,5 km/h (0 Bft) S-SW 202 9,8 C 11,0 C 0,0 km/h (0 Bft)
31.05.2012 04:00 11,0 C 92 % 0,0 l/m 0,0 km/h (0 Bft) NO 45 9,8 C 10,9 C 0,0 km/h (0 Bft)
31.05.2012 04:05 11,0 C 92 % 0,0 l/m 0,0 km/h (0 Bft) N-NO 22 9,8 C 10,9 C 0,0 km/h (0 Bft)
31.05.2012 04:10 10,9 C 92 % 0,0 l/m 0,0 km/h (0 Bft) O-NO 67 9,7 C 10,8 C 0,0 km/h (0 Bft)
31.05.2012 04:15 10,9 C 92 % 0,0 l/m 0,0 km/h (0 Bft) NO 45 9,7 C 10,8 C 0,0 km/h (0 Bft)
31.05.2012 04:20 10,9 C 92 % 0,0 l/m 0,0 km/h (0 Bft) NO 45 9,7 C 10,7 C 0,0 km/h (0 Bft)
31.05.2012 04:25 10,8 C 92 % 0,0 l/m 0,0 km/h (0 Bft) NO 45 9,6 C 10,6 C 0,0 km/h (0 Bft)
31.05.2012 04:30 10,6 C 92 % 0,0 l/m 0,0 km/h (0 Bft) N-NO 22 9,4 C 10,4 C 0,0 km/h (0 Bft)
31.05.2012 04:35 10,5 C 92 % 0,0 l/m 0,0 km/h (0 Bft) N-NW 337 9,3 C 10,4 C 0,0 km/h (0 Bft)
31.05.2012 04:40 10,3 C 92 % 0,0 l/m 0,0 km/h (0 Bft) NO 45 9,1 C 10,2 C 0,0 km/h (0 Bft)
31.05.2012 04:45 10,2 C 92 % 0,0 l/m 0,0 km/h (0 Bft) O-SO 112 9,0 C 10,0 C 0,0 km/h (0 Bft)
31.05.2012 04:50 10,3 C 92 % 0,0 l/m 0,0 km/h (0 Bft) S-SO 157 9,1 C 10,0 C 0,0 km/h (0 Bft)
31.05.2012 04:55 10,2 C 92 % 0,0 l/m 0,0 km/h (0 Bft) NO 45 9,0 C 10,0 C 0,0 km/h (0 Bft)
31.05.2012 05:00 10,0 C 92 % 0,0 l/m 0,0 km/h (0 Bft) N 360 8,8 C 9,8 C 0,0 km/h (0 Bft)
31.05.2012 05:05 10,0 C 92 % 0,0 l/m 0,0 km/h (0 Bft) W-SW 247 8,8 C 9,7 C 0,0 km/h (0 Bft)
31.05.2012 05:10 9,7 C 92 % 0,0 l/m 0,0 km/h (0 Bft) O-SO 112 8,5 C 9,5 C 0,0 km/h (0 Bft)
31.05.2012 05:15 9,6 C 92 % 0,0 l/m 0,0 km/h (0 Bft) N-NO 22 8,4 C 9,3 C 0,0 km/h (0 Bft)
31.05.2012 05:20 9,7 C 93 % 0,0 l/m 0,3 km/h (0 Bft) O 90 8,6 C 9,3 C 1,6 km/h (1 Bft)
31.05.2012 05:25 9,6 C 93 % 0,0 l/m 0,3 km/h (0 Bft) N-NO 22 8,5 C 9,3 C 0,0 km/h (0 Bft)
31.05.2012 05:30 9,8 C 93 % 0,0 l/m 0,0 km/h (0 Bft) NW 315 8,7 C 9,4 C 0,0 km/h (0 Bft)
31.05.2012 05:35 9,6 C 93 % 0,0 l/m 0,0 km/h (0 Bft) W-NW 292 8,5 C 9,4 C 0,0 km/h (0 Bft)
31.05.2012 05:40 9,4 C 93 % 0,0 l/m 0,0 km/h (0 Bft) W 270 8,3 C 9,4 C 0,0 km/h (0 Bft)
31.05.2012 05:45 9,2 C 93 % 0,0 l/m 0,0 km/h (0 Bft) NO 45 8,1 C 9,2 C 0,0 km/h (0 Bft)
31.05.2012 05:50 9,8 C 93 % 0,0 l/m 0,2 km/h (0 Bft) O-SO 112 8,7 C 9,3 C 0,0 km/h (0 Bft)
31.05.2012 05:55 9,8 C 93 % 0,0 l/m 0,6 km/h (0 Bft) N 360 8,7 C 9,4 C 2,4 km/h (1 Bft)
31.05.2012 06:00 9,9 C 93 % 0,0 l/m 1,0 km/h (0 Bft) N 360 8,8 C 9,6 C 2,9 km/h (1 Bft)
31.05.2012 06:05 9,8 C 93 % 0,0 l/m 0,6 km/h (0 Bft) O-NO 67 8,7 C 9,6 C 2,4 km/h (1 Bft)
31.05.2012 06:10 9,8 C 93 % 0,0 l/m 0,8 km/h (0 Bft) SW 225 8,7 C 9,7 C 1,8 km/h (1 Bft)
31.05.2012 06:15 9,7 C 93 % 0,0 l/m 0,6 km/h (0 Bft) S-SW 202 8,6 C 9,7 C 0,0 km/h (0 Bft)
31.05.2012 06:20 9,9 C 94 % 0,0 l/m 0,5 km/h (0 Bft) N-NW 337 9,0 C 9,9 C 0,0 km/h (0 Bft)
31.05.2012 06:25 9,8 C 93 % 0,0 l/m 0,5 km/h (0 Bft) O-SO 112 8,7 C 9,9 C 1,9 km/h (1 Bft)
31.05.2012 06:30 10,8 C 94 % 0,0 l/m 0,6 km/h (0 Bft) W 270 9,9 C 10,0 C 0,0 km/h (0 Bft)
31.05.2012 06:35 11,4 C 93 % 0,0 l/m 1,0 km/h (0 Bft) N 360 10,3 C 10,8 C 4,0 km/h (1 Bft)
31.05.2012 06:40 12,2 C 93 % 0,0 l/m 0,8 km/h (0 Bft) W-NW 292 11,1 C 11,9 C 1,6 km/h (1 Bft)
31.05.2012 06:45 12,7 C 92 % 0,0 l/m 0,8 km/h (0 Bft) S 180 11,4 C 12,6 C 0,0 km/h (0 Bft)
31.05.2012 06:50 12,7 C 92 % 0,0 l/m 0,8 km/h (0 Bft) W 270 11,4 C 13,2 C 0,0 km/h (0 Bft)
31.05.2012 06:55 12,5 C 92 % 0,0 l/m 0,5 km/h (0 Bft) N 360 11,2 C 13,3 C 0,0 km/h (0 Bft)
31.05.2012 07:00 13,7 C 89 % 0,0 l/m 0,0 km/h (0 Bft) W-SW 247 11,9 C 14,5 C 0,0 km/h (0 Bft)
31.05.2012 07:05 14,1 C 89 % 0,0 l/m 0,0 km/h (0 Bft) NW 315 12,3 C 14,9 C 0,0 km/h (0 Bft)
31.05.2012 07:10 13,5 C 89 % 0,0 l/m 0,0 km/h (0 Bft) N 360 11,7 C 14,7 C 1,9 km/h (1 Bft)
31.05.2012 07:15 12,9 C 89 % 0,0 l/m 0,0 km/h (0 Bft) SW 225 11,1 C 14,2 C 0,0 km/h (0 Bft)
31.05.2012 07:20 12,9 C 89 % 0,0 l/m 0,0 km/h (0 Bft) W-NW 292 11,1 C 14,0 C 0,0 km/h (0 Bft)
31.05.2012 07:25 13,8 C 88 % 0,0 l/m 0,0 km/h (0 Bft) W 270 11,8 C 14,0 C 0,0 km/h (0 Bft)
31.05.2012 07:30 16,3 C 85 % 0,0 l/m 0,0 km/h (0 Bft) SO 135 13,8 C 15,6 C 0,0 km/h (0 Bft)
31.05.2012 07:35 16,6 C 85 % 0,0 l/m 0,0 km/h (0 Bft) S 180 14,1 C 16,5 C 0,0 km/h (0 Bft)
31.05.2012 07:40 15,6 C 83 % 0,0 l/m 0,0 km/h (0 Bft) N 360 12,7 C 16,9 C 0,0 km/h (0 Bft)
31.05.2012 07:45 15,1 C 84 % 0,0 l/m 0,0 km/h (0 Bft) W-SW 247 12,4 C 16,9 C 0,0 km/h (0 Bft)
31.05.2012 07:50 15,8 C 81 % 0,0 l/m 0,0 km/h (0 Bft) W-NW 292 12,5 C 17,0 C 0,0 km/h (0 Bft)
31.05.2012 07:55 17,6 C 80 % 0,0 l/m 0,0 km/h (0 Bft) W-NW 292 14,1 C 17,8 C 0,0 km/h (0 Bft)
31.05.2012 08:00 18,9 C 77 % 0,0 l/m 0,2 km/h (0 Bft) W-SW 247 14,8 C 19,4 C 0,0 km/h (0 Bft)
31.05.2012 08:05 18,8 C 68 % 0,0 l/m 0,2 km/h (0 Bft) NW 315 12,8 C 20,5 C 0,0 km/h (0 Bft)
31.05.2012 08:10 18,1 C 73 % 0,0 l/m 0,0 km/h (0 Bft) W 270 13,2 C 21,0 C 0,0 km/h (0 Bft)
31.05.2012 08:15 19,6 C 76 % 0,0 l/m 0,0 km/h (0 Bft) W-NW 292 15,2 C 21,4 C 0,0 km/h (0 Bft)
31.05.2012 08:20 19,9 C 72 % 0,0 l/m 0,3 km/h (0 Bft) SO 135 14,7 C 22,2 C 0,0 km/h (0 Bft)
31.05.2012 08:25 20,6 C 71 % 0,0 l/m 0,3 km/h (0 Bft) N-NW 337 15,2 C 23,0 C 0,0 km/h (0 Bft)
31.05.2012 08:30 21,9 C 66 % 0,0 l/m 0,2 km/h (0 Bft) S-SW 202 15,3 C 24,0 C 0,0 km/h (0 Bft)
31.05.2012 08:35 21,2 C 69 % 0,0 l/m 0,3 km/h (0 Bft) S 180 15,3 C 25,0 C 3,7 km/h (1 Bft)
31.05.2012 08:40 18,1 C 74 % 0,0 l/m 2,9 km/h (1 Bft) S 180 13,4 C 22,1 C 8,7 km/h (2 Bft)
31.05.2012 08:45 20,5 C 67 % 0,0 l/m 4,5 km/h (1 Bft) S 180 14,2 C 21,3 C 7,9 km/h (2 Bft)
31.05.2012 08:50 21,1 C 67 % 0,0 l/m 5,8 km/h (2 Bft) SO 135 15,5 C 21,9 C 15,1 km/h (3 Bft)
31.05.2012 08:55 19,4 C 64 % 0,0 l/m 5,8 km/h (2 Bft) S-SO 157 12,4 C 21,5 C 9,0 km/h (2 Bft)
31.05.2012 09:00 20,7 C 59 % 0,0 l/m 6,3 km/h (2 Bft) SO 135 13,0 C 21,5 C 5,5 km/h (1 Bft)
31.05.2012 09:05 20,9 C 58 % 0,0 l/m 6,9 km/h (2 Bft) S 180 13,1 C 21,6 C 13,0 km/h (3 Bft)
31.05.2012 09:10 20,6 C 63 % 0,0 l/m 7,2 km/h (2 Bft) S 180 13,3 C 20,9 C 8,5 km/h (2 Bft)
31.05.2012 09:15 20,8 C 57 % 0,0 l/m 7,2 km/h (2 Bft) SO 135 12,8 C 21,0 C 9,7 km/h (2 Bft)
31.05.2012 09:20 21,2 C 59 % 0,0 l/m 6,8 km/h (2 Bft) SO 135 14,2 C 21,7 C 13,7 km/h (3 Bft)
31.05.2012 09:25 21,5 C 57 % 0,0 l/m 6,6 km/h (2 Bft) SO 135 13,5 C 22,0 C 7,6 km/h (2 Bft)
31.05.2012 09:30 21,6 C 56 % 0,0 l/m 6,4 km/h (2 Bft) SO 135 12,9 C 22,2 C 19,2 km/h (3 Bft)
31.05.2012 09:35 21,5 C 55 % 0,0 l/m 6,9 km/h (2 Bft) S 180 12,5 C 22,0 C 3,2 km/h (1 Bft)
31.05.2012 09:40 21,6 C 54 % 0,0 l/m 7,9 km/h (2 Bft) S-SO 157 12,3 C 21,1 C 9,8 km/h (2 Bft)
31.05.2012 09:45 22,0 C 54 % 0,0 l/m 6,9 km/h (2 Bft) SO 135 13,0 C 21,8 C 6,1 km/h (2 Bft)
31.05.2012 09:50 22,3 C 52 % 0,0 l/m 6,9 km/h (2 Bft) S 180 13,1 C 22,3 C 5,3 km/h (1 Bft)
31.05.2012 09:55 22,7 C 50 % 0,0 l/m 7,4 km/h (2 Bft) O-SO 112 12,2 C 22,7 C 11,4 km/h (2 Bft)
31.05.2012 10:00 22,4 C 49 % 0,0 l/m 7,9 km/h (2 Bft) N-NW 337 11,2 C 22,6 C 6,3 km/h (2 Bft)
31.05.2012 10:05 22,7 C 48 % 0,0 l/m 8,4 km/h (2 Bft) SO 135 11,5 C 22,2 C 8,9 km/h (2 Bft)
31.05.2012 10:10 23,0 C 48 % 0,0 l/m 8,4 km/h (2 Bft) O-SO 112 11,8 C 22,7 C 8,5 km/h (2 Bft)
31.05.2012 10:15 20,5 C 53 % 0,0 l/m 8,0 km/h (2 Bft) S-SO 157 10,6 C 22,0 C 9,8 km/h (2 Bft)
31.05.2012 10:20 21,2 C 53 % 0,0 l/m 6,9 km/h (2 Bft) S 180 11,2 C 21,5 C 6,3 km/h (2 Bft)
31.05.2012 10:25 22,7 C 49 % 0,0 l/m 7,1 km/h (2 Bft) SO 135 11,4 C 21,8 C 9,7 km/h (2 Bft)
31.05.2012 10:30 19,8 C 56 % 0,0 l/m 7,2 km/h (2 Bft) O-SO 112 10,8 C 21,1 C 6,3 km/h (2 Bft)
31.05.2012 10:35 20,1 C 55 % 0,0 l/m 7,7 km/h (2 Bft) O-SO 112 10,8 C 20,2 C 12,2 km/h (2 Bft)
31.05.2012 10:40 20,3 C 54 % 0,0 l/m 7,4 km/h (2 Bft) O-SO 112 10,7 C 20,6 C 19,0 km/h (3 Bft)
31.05.2012 10:45 21,3 C 52 % 0,0 l/m 7,2 km/h (2 Bft) N 360 11,0 C 20,6 C 11,3 km/h (2 Bft)
31.05.2012 10:50 19,3 C 55 % 0,0 l/m 7,9 km/h (2 Bft) S-SO 157 10,0 C 19,9 C 8,7 km/h (2 Bft)
31.05.2012 10:55 18,9 C 56 % 0,0 l/m 7,6 km/h (2 Bft) SO 135 9,9 C 19,3 C 5,5 km/h (1 Bft)
31.05.2012 11:00 18,6 C 59 % 0,0 l/m 6,1 km/h (2 Bft) SO 135 10,4 C 19,3 C 8,2 km/h (2 Bft)
31.05.2012 11:05 18,5 C 59 % 0,0 l/m 6,0 km/h (2 Bft) SO 135 10,3 C 19,1 C 11,7 km/h (2 Bft)
31.05.2012 11:10 19,9 C 56 % 0,0 l/m 7,1 km/h (2 Bft) O-SO 112 10,9 C 19,7 C 11,7 km/h (2 Bft)
31.05.2012 11:15 19,2 C 57 % 0,0 l/m 7,7 km/h (2 Bft) S-SO 157 10,5 C 19,5 C 7,6 km/h (2 Bft)
31.05.2012 11:20 21,2 C 49 % 0,0 l/m 8,7 km/h (2 Bft) S-SW 202 10,1 C 19,7 C 20,3 km/h (4 Bft)
31.05.2012 11:25 22,2 C 48 % 0,0 l/m 8,2 km/h (2 Bft) SO 135 10,7 C 21,2 C 8,0 km/h (2 Bft)
31.05.2012 11:30 19,8 C 52 % 0,0 l/m 7,9 km/h (2 Bft) SO 135 9,7 C 21,2 C 13,7 km/h (3 Bft)
31.05.2012 11:35 19,5 C 55 % 0,0 l/m 8,5 km/h (2 Bft) S-SO 157 10,2 C 19,7 C 11,4 km/h (2 Bft)
31.05.2012 11:40 20,3 C 55 % 0,0 l/m 7,9 km/h (2 Bft) O 90 11,0 C 19,5 C 8,4 km/h (2 Bft)
31.05.2012 11:45 21,9 C 51 % 0,0 l/m 6,8 km/h (2 Bft) SO 135 11,3 C 21,1 C 6,3 km/h (2 Bft)
31.05.2012 11:50 23,0 C 46 % 0,0 l/m 6,1 km/h (2 Bft) S 180 10,7 C 23,0 C 12,4 km/h (3 Bft)
31.05.2012 11:55 23,2 C 46 % 0,0 l/m 6,4 km/h (2 Bft) S 180 10,9 C 23,5 C 6,6 km/h (2 Bft)
31.05.2012 12:00 23,3 C 48 % 0,0 l/m 6,9 km/h (2 Bft) SO 135 11,7 C 23,9 C 6,6 km/h (2 Bft)
31.05.2012 12:05 22,9 C 47 % 0,0 l/m 6,1 km/h (2 Bft) SO 135 11,0 C 24,1 C 6,1 km/h (2 Bft)
31.05.2012 12:10 22,7 C 45 % 0,0 l/m 7,1 km/h (2 Bft) SO 135 10,1 C 23,5 C 11,1 km/h (2 Bft)
31.05.2012 12:15 22,0 C 46 % 0,0 l/m 8,0 km/h (2 Bft) O-SO 112 9,8 C 22,7 C 7,7 km/h (2 Bft)
31.05.2012 12:20 22,5 C 46 % 0,0 l/m 8,4 km/h (2 Bft) O-SO 112 10,3 C 22,4 C 11,3 km/h (2 Bft)
31.05.2012 12:25 22,0 C 48 % 0,0 l/m 7,7 km/h (2 Bft) S-SW 202 10,5 C 22,4 C 6,1 km/h (2 Bft)
31.05.2012 12:30 22,1 C 48 % 0,0 l/m 7,9 km/h (2 Bft) O-SO 112 10,6 C 22,3 C 10,5 km/h (2 Bft)
31.05.2012 12:35 20,9 C 48 % 0,0 l/m 8,9 km/h (2 Bft) N 360 9,5 C 21,3 C 10,8 km/h (2 Bft)
31.05.2012 12:40 22,1 C 47 % 0,0 l/m 7,9 km/h (2 Bft) SO 135 10,3 C 21,4 C 11,4 km/h (2 Bft)
31.05.2012 12:45 23,0 C 47 % 0,0 l/m 6,9 km/h (2 Bft) SO 135 11,1 C 22,6 C 8,0 km/h (2 Bft)
31.05.2012 12:50 23,4 C 44 % 0,0 l/m 7,2 km/h (2 Bft) S-SO 157 10,4 C 23,5 C 10,6 km/h (2 Bft)
31.05.2012 12:55 22,3 C 48 % 0,0 l/m 6,6 km/h (2 Bft) S 180 10,8 C 23,3 C 6,8 km/h (2 Bft)
31.05.2012 13:00 22,8 C 47 % 0,0 l/m 7,4 km/h (2 Bft) S-SO 157 10,9 C 23,0 C 11,9 km/h (2 Bft)
31.05.2012 13:05 22,3 C 46 % 0,0 l/m 7,7 km/h (2 Bft) W-SW 247 10,1 C 22,6 C 7,4 km/h (2 Bft)
31.05.2012 13:10 22,8 C 47 % 0,0 l/m 8,9 km/h (2 Bft) S-SO 157 10,9 C 22,4 C 11,3 km/h (2 Bft)
31.05.2012 13:15 22,6 C 46 % 0,0 l/m 9,3 km/h (2 Bft) S-SO 157 10,4 C 22,5 C 11,4 km/h (2 Bft)
31.05.2012 13:20 22,6 C 47 % 0,0 l/m 8,0 km/h (2 Bft) S-SO 157 10,7 C 22,6 C 2,9 km/h (1 Bft)
31.05.2012 13:25 22,9 C 46 % 0,0 l/m 8,0 km/h (2 Bft) SO 135 10,7 C 22,9 C 14,6 km/h (3 Bft)
31.05.2012 13:30 23,1 C 45 % 0,0 l/m 8,0 km/h (2 Bft) S-SW 202 10,5 C 22,9 C 11,4 km/h (2 Bft)
31.05.2012 13:35 23,2 C 43 % 0,0 l/m 9,7 km/h (2 Bft) O-SO 112 9,9 C 22,5 C 12,7 km/h (3 Bft)
31.05.2012 13:40 23,0 C 45 % 0,0 l/m 9,8 km/h (2 Bft) S 180 10,4 C 22,2 C 8,4 km/h (2 Bft)
31.05.2012 13:45 23,0 C 45 % 0,0 l/m 9,7 km/h (2 Bft) S 180 10,4 C 22,6 C 11,3 km/h (2 Bft)
31.05.2012 13:50 22,6 C 46 % 0,0 l/m 7,7 km/h (2 Bft) S 180 10,4 C 23,3 C 11,4 km/h (2 Bft)
31.05.2012 13:55 22,9 C 44 % 0,0 l/m 7,7 km/h (2 Bft) SO 135 10,0 C 23,5 C 12,9 km/h (3 Bft)
31.05.2012 14:00 22,3 C 46 % 0,0 l/m 8,2 km/h (2 Bft) S 180 10,1 C 22,9 C 11,3 km/h (2 Bft)
31.05.2012 14:05 22,8 C 46 % 0,0 l/m 8,7 km/h (2 Bft) SO 135 10,6 C 22,5 C 9,2 km/h (2 Bft)
31.05.2012 14:10 23,2 C 42 % 0,0 l/m 9,3 km/h (2 Bft) O-SO 112 9,6 C 22,9 C 11,6 km/h (2 Bft)
31.05.2012 14:15 23,4 C 40 % 0,0 l/m 8,7 km/h (2 Bft) S-SW 202 9,0 C 23,2 C 8,4 km/h (2 Bft)
31.05.2012 14:20 23,6 C 40 % 0,0 l/m 9,0 km/h (2 Bft) S-SO 157 9,2 C 23,4 C 5,8 km/h (2 Bft)
31.05.2012 14:25 23,1 C 39 % 0,0 l/m 9,8 km/h (2 Bft) SO 135 8,4 C 23,3 C 16,4 km/h (3 Bft)
31.05.2012 14:30 22,9 C 41 % 0,0 l/m 9,0 km/h (2 Bft) O 90 8,9 C 23,3 C 7,2 km/h (2 Bft)
31.05.2012 14:35 22,5 C 43 % 0,0 l/m 9,2 km/h (2 Bft) S 180 9,3 C 22,7 C 7,1 km/h (2 Bft)
31.05.2012 14:40 23,3 C 41 % 0,0 l/m 8,9 km/h (2 Bft) SO 135 9,3 C 23,1 C 12,6 km/h (3 Bft)
31.05.2012 14:45 22,7 C 43 % 0,0 l/m 7,7 km/h (2 Bft) O 90 9,5 C 23,6 C 5,8 km/h (2 Bft)
31.05.2012 14:50 23,1 C 41 % 0,0 l/m 7,9 km/h (2 Bft) S-SW 202 9,1 C 23,6 C 14,3 km/h (3 Bft)
31.05.2012 14:55 23,1 C 40 % 0,0 l/m 7,7 km/h (2 Bft) O-SO 112 8,8 C 23,6 C 12,1 km/h (2 Bft)
31.05.2012 15:00 22,7 C 39 % 0,0 l/m 8,0 km/h (2 Bft) O-SO 112 8,0 C 23,7 C 7,6 km/h (2 Bft)
31.05.2012 15:05 22,8 C 39 % 0,0 l/m 8,5 km/h (2 Bft) S 180 8,1 C 23,4 C 19,5 km/h (3 Bft)
31.05.2012 15:10 23,5 C 41 % 0,0 l/m 7,2 km/h (2 Bft) SO 135 9,5 C 24,2 C 12,1 km/h (2 Bft)
31.05.2012 15:15 23,5 C 39 % 0,0 l/m 7,2 km/h (2 Bft) S-SO 157 8,7 C 24,3 C 10,3 km/h (2 Bft)
31.05.2012 15:20 23,5 C 40 % 0,0 l/m 8,2 km/h (2 Bft) S 180 9,1 C 24,0 C 8,0 km/h (2 Bft)
31.05.2012 15:25 23,6 C 38 % 0,0 l/m 9,0 km/h (2 Bft) O-SO 112 8,4 C 24,0 C 20,0 km/h (4 Bft)
31.05.2012 15:30 23,5 C 40 % 0,0 l/m 9,5 km/h (2 Bft) S 180 9,1 C 23,9 C 10,6 km/h (2 Bft)
31.05.2012 15:35 23,4 C 40 % 0,0 l/m 9,8 km/h (2 Bft) O-SO 112 9,0 C 23,9 C 8,9 km/h (2 Bft)
31.05.2012 15:40 23,4 C 41 % 0,0 l/m 8,5 km/h (2 Bft) S-SW 202 9,4 C 24,2 C 6,8 km/h (2 Bft)
31.05.2012 15:45 23,3 C 40 % 0,0 l/m 7,2 km/h (2 Bft) S 180 8,9 C 24,5 C 10,9 km/h (2 Bft)
31.05.2012 15:50 23,0 C 41 % 0,0 l/m 7,7 km/h (2 Bft) SO 135 9,0 C 23,8 C 16,4 km/h (3 Bft)
31.05.2012 15:55 22,9 C 42 % 0,0 l/m 8,9 km/h (2 Bft) O 90 9,3 C 23,5 C 8,0 km/h (2 Bft)
31.05.2012 16:00 22,2 C 43 % 0,0 l/m 8,0 km/h (2 Bft) S 180 9,0 C 23,3 C 6,4 km/h (2 Bft)
31.05.2012 16:05 21,9 C 46 % 0,0 l/m 8,0 km/h (2 Bft) O-SO 112 9,7 C 22,7 C 16,6 km/h (3 Bft)
31.05.2012 16:10 22,4 C 44 % 0,0 l/m 8,4 km/h (2 Bft) S-SO 157 9,5 C 22,3 C 10,5 km/h (2 Bft)
31.05.2012 16:15 23,4 C 45 % 0,0 l/m 7,4 km/h (2 Bft) O-SO 112 10,8 C 23,4 C 12,4 km/h (3 Bft)
31.05.2012 16:20 23,4 C 42 % 0,0 l/m 7,2 km/h (2 Bft) SO 135 9,7 C 24,4 C 6,6 km/h (2 Bft)
31.05.2012 16:25 23,6 C 41 % 0,0 l/m 8,5 km/h (2 Bft) S-SO 157 9,6 C 24,2 C 11,1 km/h (2 Bft)
31.05.2012 16:30 23,5 C 40 % 0,0 l/m 8,9 km/h (2 Bft) S 180 9,1 C 24,6 C 14,2 km/h (3 Bft)
31.05.2012 16:35 23,5 C 40 % 0,0 l/m 8,5 km/h (2 Bft) SO 135 9,1 C 24,7 C 7,7 km/h (2 Bft)
31.05.2012 16:40 23,1 C 44 % 0,0 l/m 7,4 km/h (2 Bft) SO 135 10,2 C 25,1 C 9,0 km/h (2 Bft)
31.05.2012 16:45 22,9 C 44 % 0,0 l/m 6,8 km/h (2 Bft) SO 135 10,0 C 25,1 C 9,2 km/h (2 Bft)
31.05.2012 16:50 21,8 C 47 % 0,0 l/m 6,9 km/h (2 Bft) SO 135 10,0 C 23,9 C 6,0 km/h (2 Bft)
31.05.2012 16:55 21,5 C 47 % 0,0 l/m 6,6 km/h (2 Bft) SO 135 9,7 C 23,1 C 6,4 km/h (2 Bft)
31.05.2012 17:00 21,3 C 48 % 0,0 l/m 5,6 km/h (1 Bft) S-SO 157 9,8 C 22,6 C 7,7 km/h (2 Bft)
31.05.2012 17:05 21,1 C 48 % 0,0 l/m 4,8 km/h (1 Bft) SO 135 9,7 C 22,2 C 3,4 km/h (1 Bft)
31.05.2012 17:10 20,9 C 49 % 0,0 l/m 5,3 km/h (1 Bft) SO 135 9,8 C 22,1 C 5,8 km/h (2 Bft)
31.05.2012 17:15 20,7 C 50 % 0,0 l/m 5,6 km/h (1 Bft) S-SO 157 9,9 C 21,8 C 5,1 km/h (1 Bft)
31.05.2012 17:20 20,5 C 50 % 0,0 l/m 6,4 km/h (2 Bft) N 360 9,7 C 21,3 C 9,5 km/h (2 Bft)
31.05.2012 17:25 20,7 C 51 % 0,0 l/m 6,8 km/h (2 Bft) O 90 10,2 C 21,1 C 10,5 km/h (2 Bft)
31.05.2012 17:30 20,7 C 51 % 0,0 l/m 7,2 km/h (2 Bft) S 180 10,2 C 21,1 C 10,6 km/h (2 Bft)
31.05.2012 17:35 20,7 C 51 % 0,0 l/m 7,1 km/h (2 Bft) S-SO 157 10,2 C 21,0 C 8,0 km/h (2 Bft)
31.05.2012 17:40 20,7 C 51 % 0,0 l/m 6,0 km/h (2 Bft) SO 135 10,2 C 21,4 C 6,1 km/h (2 Bft)
31.05.2012 17:45 20,6 C 49 % 0,0 l/m 5,8 km/h (2 Bft) SO 135 9,5 C 21,4 C 8,7 km/h (2 Bft)
31.05.2012 17:50 20,6 C 50 % 0,0 l/m 6,0 km/h (2 Bft) O-SO 112 9,8 C 21,3 C 6,9 km/h (2 Bft)
31.05.2012 17:55 20,6 C 49 % 0,0 l/m 6,1 km/h (2 Bft) O-SO 112 9,5 C 21,4 C 6,8 km/h (2 Bft)
31.05.2012 18:00 20,5 C 49 % 0,0 l/m 5,3 km/h (1 Bft) S 180 9,4 C 21,4 C 5,5 km/h (1 Bft)
31.05.2012 18:05 20,4 C 50 % 0,0 l/m 5,6 km/h (1 Bft) NO 45 9,6 C 21,3 C 5,1 km/h (1 Bft)
31.05.2012 18:10 20,2 C 52 % 0,0 l/m 5,3 km/h (1 Bft) SO 135 10,0 C 21,2 C 8,9 km/h (2 Bft)
31.05.2012 18:15 20,0 C 51 % 0,0 l/m 5,5 km/h (1 Bft) O-SO 112 9,6 C 21,0 C 12,1 km/h (2 Bft)
31.05.2012 18:20 20,1 C 49 % 0,0 l/m 7,7 km/h (2 Bft) S 180 9,0 C 20,4 C 5,8 km/h (2 Bft)
31.05.2012 18:25 20,1 C 49 % 0,0 l/m 8,5 km/h (2 Bft) SO 135 9,0 C 20,0 C 10,8 km/h (2 Bft)
31.05.2012 18:30 20,2 C 50 % 0,0 l/m 7,4 km/h (2 Bft) S-SO 157 9,4 C 20,6 C 12,2 km/h (2 Bft)
31.05.2012 18:35 20,1 C 50 % 0,0 l/m 7,9 km/h (2 Bft) O-SO 112 9,3 C 20,4 C 15,3 km/h (3 Bft)
31.05.2012 18:40 20,0 C 52 % 0,0 l/m 7,7 km/h (2 Bft) O-SO 112 9,8 C 20,4 C 4,3 km/h (1 Bft)
31.05.2012 18:45 19,9 C 52 % 0,0 l/m 6,4 km/h (2 Bft) S-SO 157 9,7 C 20,8 C 5,8 km/h (2 Bft)
31.05.2012 18:50 19,9 C 51 % 0,0 l/m 6,4 km/h (2 Bft) SO 135 9,5 C 20,8 C 14,8 km/h (3 Bft)
31.05.2012 18:55 19,8 C 52 % 0,0 l/m 8,4 km/h (2 Bft) SO 135 9,7 C 19,9 C 9,3 km/h (2 Bft)
31.05.2012 19:00 19,6 C 53 % 0,0 l/m 9,3 km/h (2 Bft) SO 135 9,8 C 19,5 C 11,9 km/h (2 Bft)
31.05.2012 19:05 19,4 C 54 % 0,0 l/m 9,7 km/h (2 Bft) S 180 9,8 C 19,1 C 13,0 km/h (3 Bft)
31.05.2012 19:10 19,1 C 54 % 0,0 l/m 9,2 km/h (2 Bft) S 180 9,6 C 18,9 C 20,8 km/h (4 Bft)
31.05.2012 19:15 19,1 C 54 % 0,0 l/m 8,5 km/h (2 Bft) SO 135 9,6 C 18,8 C 7,1 km/h (2 Bft)
31.05.2012 19:21 19,0 C 53 % 0,0 l/m 8,2 km/h (2 Bft) O 90 9,2 C 19,0 C 5,6 km/h (1 Bft)
31.05.2012 19:25 18,8 C 55 % 0,0 l/m 7,9 km/h (2 Bft) O 90 9,6 C 19,0 C 4,0 km/h (1 Bft)
31.05.2012 19:30 18,7 C 55 % 0,0 l/m 6,9 km/h (2 Bft) O-SO 112 9,5 C 19,2 C 9,3 km/h (2 Bft)
31.05.2012 19:35 18,6 C 55 % 0,0 l/m 6,8 km/h (2 Bft) O 90 9,4 C 19,1 C 9,0 km/h (2 Bft)
31.05.2012 19:40 18,5 C 55 % 0,0 l/m 7,2 km/h (2 Bft) SO 135 9,3 C 18,9 C 4,8 km/h (1 Bft)
31.05.2012 19:45 18,3 C 56 % 0,0 l/m 6,9 km/h (2 Bft) SO 135 9,4 C 18,9 C 8,9 km/h (2 Bft)
31.05.2012 19:50 18,0 C 56 % 0,0 l/m 5,5 km/h (1 Bft) O-SO 112 9,1 C 18,9 C 6,1 km/h (2 Bft)
31.05.2012 19:55 17,8 C 57 % 0,0 l/m 5,6 km/h (1 Bft) S 180 9,2 C 18,7 C 3,4 km/h (1 Bft)
31.05.2012 20:00 17,5 C 57 % 0,0 l/m 3,9 km/h (1 Bft) O-NO 67 8,9 C 18,4 C 2,3 km/h (1 Bft)
31.05.2012 20:05 17,4 C 57 % 0,0 l/m 3,1 km/h (1 Bft) NO 45 8,8 C 18,3 C 1,8 km/h (1 Bft)
31.05.2012 20:10 17,3 C 58 % 0,0 l/m 2,6 km/h (1 Bft) O 90 9,0 C 18,0 C 3,2 km/h (1 Bft)
31.05.2012 20:15 17,1 C 58 % 0,0 l/m 1,8 km/h (1 Bft) O 90 8,8 C 17,9 C 2,1 km/h (1 Bft)
31.05.2012 20:20 16,8 C 58 % 0,0 l/m 1,6 km/h (1 Bft) NO 45 8,5 C 17,6 C 2,6 km/h (1 Bft)
31.05.2012 20:25 16,8 C 58 % 0,0 l/m 1,3 km/h (1 Bft) NO 45 8,5 C 17,5 C 1,9 km/h (1 Bft)
31.05.2012 20:30 16,5 C 59 % 0,0 l/m 0,6 km/h (0 Bft) O 90 8,5 C 17,2 C 0,0 km/h (0 Bft)
31.05.2012 20:35 16,5 C 59 % 0,0 l/m 0,3 km/h (0 Bft) N 360 8,5 C 17,0 C 0,0 km/h (0 Bft)
31.05.2012 20:40 16,2 C 59 % 0,0 l/m 0,3 km/h (0 Bft) O 90 8,2 C 16,8 C 0,0 km/h (0 Bft)
31.05.2012 20:45 16,2 C 59 % 0,0 l/m 0,6 km/h (0 Bft) S-SO 157 8,2 C 16,7 C 0,0 km/h (0 Bft)
31.05.2012 20:50 16,1 C 60 % 0,0 l/m 0,5 km/h (0 Bft) O 90 8,3 C 16,7 C 2,1 km/h (1 Bft)
31.05.2012 20:55 16,1 C 60 % 0,0 l/m 0,5 km/h (0 Bft) N-NO 22 8,3 C 16,6 C 3,4 km/h (1 Bft)
31.05.2012 21:00 16,2 C 60 % 0,0 l/m 1,0 km/h (0 Bft) SO 135 8,4 C 16,6 C 0,0 km/h (0 Bft)
31.05.2012 21:05 16,1 C 60 % 0,0 l/m 1,1 km/h (1 Bft) O-SO 112 8,3 C 16,5 C 1,8 km/h (1 Bft)
31.05.2012 21:10 16,1 C 60 % 0,0 l/m 1,4 km/h (1 Bft) SO 135 8,3 C 16,5 C 2,3 km/h (1 Bft)
31.05.2012 21:15 16,0 C 60 % 0,0 l/m 1,8 km/h (1 Bft) O 90 8,2 C 16,6 C 0,0 km/h (0 Bft)
31.05.2012 21:20 16,2 C 60 % 0,0 l/m 1,1 km/h (1 Bft) O-SO 112 8,4 C 16,5 C 1,6 km/h (1 Bft)
31.05.2012 21:25 16,1 C 60 % 0,0 l/m 1,4 km/h (1 Bft) S-SO 157 8,3 C 16,5 C 2,9 km/h (1 Bft)
31.05.2012 21:30 16,1 C 60 % 0,0 l/m 1,9 km/h (1 Bft) O-SO 112 8,3 C 16,5 C 2,4 km/h (1 Bft)
31.05.2012 21:35 16,2 C 60 % 0,0 l/m 2,4 km/h (1 Bft) NO 45 8,4 C 16,7 C 4,7 km/h (1 Bft)
31.05.2012 21:40 16,4 C 60 % 0,0 l/m 3,4 km/h (1 Bft) O-SO 112 8,6 C 16,7 C 3,1 km/h (1 Bft)
31.05.2012 21:45 16,2 C 60 % 0,0 l/m 3,5 km/h (1 Bft) W-NW 292 8,4 C 16,6 C 2,1 km/h (1 Bft)
31.05.2012 21:50 15,9 C 62 % 0,0 l/m 2,4 km/h (1 Bft) O-SO 112 8,6 C 16,3 C 1,9 km/h (1 Bft)
31.05.2012 21:55 15,8 C 63 % 0,0 l/m 2,3 km/h (1 Bft) O-SO 112 8,8 C 16,1 C 4,5 km/h (1 Bft)
31.05.2012 22:00 15,6 C 65 % 0,0 l/m 1,8 km/h (1 Bft) N 360 9,0 C 15,7 C 1,8 km/h (1 Bft)
31.05.2012 22:05 15,4 C 66 % 0,0 l/m 1,4 km/h (1 Bft) N 360 9,1 C 15,5 C 2,1 km/h (1 Bft)
31.05.2012 22:10 15,2 C 66 % 0,0 l/m 0,8 km/h (0 Bft) S-SO 157 8,9 C 15,2 C 2,4 km/h (1 Bft)
31.05.2012 22:15 15,3 C 66 % 0,0 l/m 0,8 km/h (0 Bft) S-SO 157 9,0 C 15,3 C 2,7 km/h (1 Bft)
31.05.2012 22:20 15,5 C 66 % 0,0 l/m 2,6 km/h (1 Bft) SO 135 9,2 C 15,7 C 10,3 km/h (2 Bft)
31.05.2012 22:25 14,5 C 74 % 0,0 l/m 7,1 km/h (2 Bft) O-SO 112 9,9 C 14,7 C 11,4 km/h (2 Bft)
31.05.2012 22:30 13,8 C 79 % 0,0 l/m 10,8 km/h (2 Bft) O 90 10,2 C 10,7 C 23,7 km/h (4 Bft)
31.05.2012 22:35 13,7 C 81 % 0,0 l/m 9,7 km/h (2 Bft) O-SO 112 10,5 C 11,1 C 19,2 km/h (3 Bft)
31.05.2012 22:40 13,5 C 84 % 0,0 l/m 8,7 km/h (2 Bft) NO 45 10,8 C 11,3 C 11,3 km/h (2 Bft)
31.05.2012 22:45 13,4 C 85 % 0,0 l/m 7,7 km/h (2 Bft) SO 135 10,9 C 11,8 C 5,6 km/h (1 Bft)
31.05.2012 22:50 13,3 C 85 % 0,0 l/m 5,8 km/h (2 Bft) O-SO 112 10,8 C 12,9 C 14,5 km/h (3 Bft)
31.05.2012 22:55 13,3 C 86 % 0,0 l/m 5,5 km/h (1 Bft) SO 135 11,0 C 12,9 C 7,6 km/h (2 Bft)
31.05.2012 23:00 13,2 C 87 % 0,0 l/m 5,8 km/h (2 Bft) S-SO 157 11,1 C 12,8 C 4,5 km/h (1 Bft)
31.05.2012 23:05 13,2 C 87 % 0,0 l/m 5,3 km/h (1 Bft) SO 135 11,1 C 12,9 C 5,8 km/h (2 Bft)
31.05.2012 23:10 13,2 C 87 % 0,0 l/m 4,8 km/h (1 Bft) O-SO 112 11,1 C 13,0 C 5,0 km/h (1 Bft)
31.05.2012 23:15 13,1 C 87 % 0,0 l/m 4,2 km/h (1 Bft) S 180 11,0 C 13,0 C 5,0 km/h (1 Bft)
31.05.2012 23:20 13,0 C 88 % 0,0 l/m 3,1 km/h (1 Bft) S 180 11,1 C 13,0 C 1,8 km/h (1 Bft)
31.05.2012 23:25 12,9 C 88 % 0,0 l/m 3,1 km/h (1 Bft) N-NW 337 11,0 C 13,1 C 0,0 km/h (0 Bft)
31.05.2012 23:30 12,8 C 89 % 0,0 l/m 1,4 km/h (1 Bft) S-SO 157 11,0 C 13,1 C 2,7 km/h (1 Bft)
31.05.2012 23:35 12,7 C 89 % 0,0 l/m 0,6 km/h (0 Bft) SO 135 10,9 C 13,0 C 0,0 km/h (0 Bft)
31.05.2012 23:40 12,7 C 89 % 0,7 l/m 0,8 km/h (0 Bft) N-NO 22 10,9 C 13,0 C 1,8 km/h (1 Bft)
31.05.2012 23:45 12,7 C 89 % 0,0 l/m 1,6 km/h (1 Bft) N 360 10,9 C 13,0 C 3,5 km/h (1 Bft)
31.05.2012 23:50 12,9 C 89 % 0,0 l/m 3,5 km/h (1 Bft) O-SO 112 11,1 C 13,4 C 8,2 km/h (2 Bft)
31.05.2012 23:55 13,1 C 88 % 0,0 l/m 4,5 km/h (1 Bft) NO 45 11,2 C 13,6 C 3,7 km/h (1 Bft)
_ Min-Zeit 05:45 15:25 - 08:15 - - 00:55 05:45 23:35
Minimum _ 9,2 C 38 % - 0,0 km/h (0 Bft) - - 7,6 C 9,2 C 0,0 km/h (0 Bft)
_ Max-Zeit 16:25 06:30 23:40 22:30 - - 08:50 16:45 22:30
Maximum _ 23,6 C 94 % 0,7 l/m 10,8 km/h
O (2 Bft)
- - 15,5 C 25,1 C 23,7 km/h
O (4 Bft)
Durchschnitt _ 17,0 C 66 % #2,1 l/m 4,2 km/h (1 Bft) SO - 10,0 C 17,3 C 5,6 km/h (1 Bft)